Temp
56 53 57 58 58 57 60 64 65 65 63 62 60 60 60 60 61 63 63 63 61 60 58 57 56 56 55 54 54 51 52 49 51 50 53 54 56 57 57 58 59 60 61
45 46 47 51 55 57 60 62 63 64 64 64 62 60 61 61 62 61 61 62 60 60 60 58 57 57 55 54 55 53 50 49 49 48 46 50 53 55 57 57 59 59 59
39 40 42 43 46 52 57 61 61 63 63 63 61 59 59 58 58 60 60 62 62 60 61 59 58 57 58 56 56 55 52 49 48 50 49 45 47 47 54 55 57 58 57
41 42 43 44 44 46 49 57 61 62 63 62 62 61 60 59 58 60 61 61 62 60 62 61 60 60 58 57 56 56 54 54 48 48 50 47 46 45 47 53 54 56 56
40 42 43 45 47 47 47 52 59 60 60 61 61 60 59 61 58 58 58 58 59 61 61 61 60 59 58 57 57 55 52 58 54 52 46 45 44 44 44 47 50 53 55
39 40 42 44 44 46 46 49 59 60 59 60 59 59 58 57 58 56 57 57 58 58 59 59 60 60 58 55 55 56 54 56 56 51 48 47 46 44 43 42 46 51 51
36 37 37 38 40 42 43 46 49 58 59 60 58 59 57 57 58 57 58 56 57 59 59 59 58 59 60 59 59 55 54 54 53 52 51 50 49 48 46 45 43 48 49
34 35 35 36 37 39 41 42 45 49 57 59 59 58 57 58 58 58 58 58 58 59 61 60 61 59 59 60 59 58 56 55 53 51 53 50 49 49 48 47 44 42 46
32 32 34 35 36 37 38 41 43 47 51 56 58 57 56 56 57 57 57 58 59 60 59 60 61 61 60 60 59 57 57 55 53 51 51 52 49 50 50 49 49 47 41
30 31 32 33 35 36 38 40 42 44 47 51 56 57 57 58 59 59 58 57 57 57 58 57 59 60 61 61 59 59 57 56 53 53 51 51 50 51 50 49 49 48 46
27 28 30 32 34 35 36 38 39 41 43 46 53 55 55 56 56 56 58 59 60 58 57 58 59 60 59 60 59 58 57 54 55 54 50 52 52 51 51 48 48 47 47
26 27 29 30 31 32 34 36 37 38 41 43 48 53 54 55 54 54 54 56 58 59 59 58 58 58 57 57 58 57 56 55 54 52 52 52 53 51 51 51 48 49 46
25 26 27 28 29 30 32 34 35 36 39 41 43 45 47 49 52 54 54 55 55 55 54 55 54 53 52 53 56 57 55 54 54 54 53 53 51 50 48 50 50 48 48
24 25 25 27 28 29 31 32 34 35 37 39 40 41 43 45 47 53 54 54 54 53 54 54 54 53 53 53 53 53 53 52 53 53 53 53 51 52 50 49 49 47 46
23 23 23 25 26 27 29 30 32 33 35 37 37 38 41 43 45 46 49 54 53 53 53 53 53 53 53 52 52 52 51 51 51 50 51 50 51 50 51 51 48 47 46
21 22 23 24 24 25 27 29 29 31 33 34 35 37 39 40 42 43 45 48 50 53 52 52 52 51 52 50 50 51 50 50 50 49 48 49 47 49 51 51 51 51 47
19 20 22 23 23 24 26 27 29 30 31 31 33 35 37 38 39 41 42 43 45 48 51 51 51 51 51 50 50 49 50 49 48 48 47 46 48 48 49 50 50 50 51
18 19 21 22 23 24 25 27 28 28 29 30 31 34 35 35 37 39 40 41 43 44 46 47 49 50 50 49 49 48 49 48 48 48 47 47 47 47 47 47 46 47 48
19 20 21 22 23 23 24 26 26 26 27 28 30 31 33 34 35 36 37 39 41 42 43 44 45 46 46 47 48 48 48 47 47 47 47 48 47 48 48 46 45 44 44
19 20 21 22 22 22 24 24 24 24 25 27 30 32 32 32 32 33 36 38 39 40 42 42 43 44 44 46 47 47 46 45 44 44 44 46 46 47 47 46 44 41 41
19 21 21 20 21 22 23 22 22 22 24 27 29 31 33 33 32 33 35 36 37 38 38 39 40 41 42 43 46 47 45 44 42 42 42 43 46 46 46 46 42 42 40
19 20 19 20 21 22 22 21 21 23 25 27 27 29 31 33 33 33 33 35 36 35 36 37 37 39 41 43 44 46 46 46 42 41 41 42 44 45 45 43 44 43 40
18 18 18 19 20 21 22 20 22 23 24 26 26 28 29 30 32 31 31 32 34 34 34 34 34 35 38 40 43 44 45 44 41 41 42 43 44 44 44 43 43 41 35
18 19 18 18 18 20 21 21 22 23 24 24 26 28 28 29 29 31 32 31 31 33 33 33 33 35 36 38 39 41 41 42 40 41 41 42 43 43 41 41 39 35 34
17 18 17 18 18 19 20 21 23 23 22 24 25 27 28 27 28 29 30 31 32 34 32 33 33 33 32 36 40 41 40 40 40 39 38 36 35 35 35 34 33 33 34
15 15 15 16 17 17 18 20 21 21 20 22 24 26 26 27 27 28 28 34 36 37 38 38 37 36 38 39 40 41 42 42 42 37 34 33 34 34 33 32 32 32 33
MSLP
1009.13 1009.54 1009.43 1009.53 1009.81 1010.22 1010.55 1010.73 1011.23 1011.88 1012.55 1013.24 1013.96 1014.77 1015.07 1015.68 1016.07 1016.48 1016.92 1017.45 1018.10 1018.73 1019.37 1020.01 1020.47 1021.05 1021.74 1022.35 1022.81 1023.51 1024.02 1024.81 1024.92 1025.31 1025.95 1026.05 1025.80 1025.64 1025.46 1025.50 1025.43 1025.47 1025.53
1010.47 1010.60 1010.35 1010.05 1010.08 1010.09 1010.31 1010.63 1010.79 1011.37 1011.98 1012.61 1013.34 1013.98 1014.55 1015.16 1015.48 1016.22 1016.80 1017.25 1017.78 1018.46 1019.02 1019.67 1020.17 1020.74 1021.50 1022.21 1022.74 1023.14 1024.19 1024.71 1024.92 1025.44 1026.24 1026.51 1026.37 1026.07 1025.93 1025.69 1025.69 1025.67 1025.81
1012.18 1011.91 1011.69 1011.46 1011.09 1010.64 1010.49 1010.30 1010.47 1010.87 1011.43 1012.14 1013.08 1013.66 1014.51 1015.16 1015.70 1016.14 1016.69 1016.97 1017.36 1017.94 1018.48 1019.16 1019.69 1020.34 1020.90 1021.70 1022.30 1022.78 1023.08 1024.24 1025.01 1024.82 1025.33 1026.61 1026.54 1026.57 1026.34 1026.15 1026.06 1026.03 1026.00
1013.17 1012.97 1012.57 1012.27 1012.14 1011.76 1010.96 1010.49 1010.43 1010.68 1011.19 1011.88 1012.53 1013.15 1013.76 1014.46 1015.00 1015.51 1016.09 1016.58 1016.95 1017.50 1018.01 1018.60 1019.14 1019.71 1020.38 1021.17 1021.77 1022.30 1022.66 1023.16 1024.43 1025.06 1025.08 1025.21 1025.77 1026.55 1026.87 1026.46 1026.33 1026.29 1026.23
1014.32 1014.06 1013.69 1013.25 1012.82 1012.39 1011.80 1010.81 1010.37 1010.64 1011.08 1011.56 1012.04 1012.78 1013.44 1013.74 1014.21 1014.97 1015.62 1016.24 1016.66 1017.13 1017.63 1018.18 1018.66 1019.35 1019.99 1020.55 1021.18 1021.98 1022.43 1022.63 1023.54 1024.03 1025.03 1025.52 1025.90 1026.00 1026.41 1026.61 1026.52 1026.55 1026.37
1015.39 1015.24 1014.96 1014.35 1013.78 1013.18 1012.43 1011.57 1010.83 1010.74 1010.94 1011.30 1011.80 1012.35 1012.94 1013.44 1014.13 1014.81 1015.41 1015.89 1016.36 1016.89 1017.32 1017.76 1018.28 1018.72 1019.36 1020.02 1020.57 1021.23 1021.90 1022.28 1022.74 1023.45 1023.95 1024.54 1025.22 1025.71 1026.03 1026.52 1026.57 1026.26 1026.36
1016.51 1016.29 1015.98 1015.48 1014.95 1014.21 1013.51 1012.67 1011.81 1011.02 1010.94 1011.14 1011.45 1011.91 1012.49 1013.03 1013.57 1014.12 1014.71 1015.44 1016.05 1016.46 1016.86 1017.34 1017.84 1018.29 1018.64 1019.24 1019.77 1020.56 1021.19 1021.74 1022.20 1022.74 1023.37 1023.73 1024.12 1024.62 1025.30 1025.77 1026.38 1026.44 1026.53
1017.72 1017.46 1017.06 1016.65 1016.01 1015.30 1014.58 1013.82 1012.93 1012.03 1011.24 1011.23 1011.54 1011.73 1012.12 1012.57 1013.07 1013.60 1014.14 1014.69 1015.22 1015.61 1016.00 1016.49 1016.96 1017.56 1018.13 1018.66 1019.14 1019.90 1020.59 1021.24 1021.79 1022.28 1022.78 1023.32 1023.72 1024.06 1024.41 1024.96 1025.66 1026.55 1026.60
1018.97 1018.60 1018.13 1017.63 1016.97 1016.15 1015.51 1014.67 1013.77 1012.93 1012.12 1011.45 1011.38 1011.80 1012.15 1012.53 1012.84 1013.25 1013.79 1014.20 1014.49 1014.88 1015.36 1015.90 1016.42 1016.88 1017.32 1017.89 1018.57 1019.22 1019.84 1020.44 1021.14 1021.69 1022.22 1022.68 1023.23 1023.61 1023.87 1024.16 1024.42 1025.11 1026.31
1020.13 1019.76 1019.31 1018.74 1018.15 1017.42 1016.52 1015.54 1014.73 1013.83 1013.15 1012.22 1011.48 1011.62 1011.94 1012.34 1012.70 1012.98 1013.40 1013.81 1014.16 1014.59 1015.03 1015.45 1015.78 1016.28 1016.68 1017.15 1017.88 1018.50 1019.17 1019.89 1020.46 1021.13 1021.80 1022.21 1022.60 1023.15 1023.49 1023.84 1024.10 1024.34 1024.84
1021.48 1020.96 1020.47 1019.86 1019.20 1018.41 1017.47 1016.52 1015.65 1014.82 1014.04 1012.93 1012.02 1011.77 1011.92 1012.21 1012.50 1012.82 1013.03 1013.33 1013.65 1014.00 1014.39 1014.75 1015.17 1015.56 1016.02 1016.49 1017.08 1017.68 1018.36 1019.09 1019.85 1020.48 1021.14 1021.61 1022.02 1022.52 1022.90 1023.30 1023.82 1024.14 1024.44
1022.58 1021.97 1021.39 1020.69 1019.88 1019.14 1018.28 1017.51 1016.80 1016.05 1015.35 1013.75 1012.96 1012.29 1012.30 1012.50 1012.59 1012.97 1013.04 1013.12 1013.24 1013.35 1013.76 1014.20 1014.57 1014.97 1015.53 1016.05 1016.43 1016.96 1017.59 1018.25 1019.07 1019.59 1020.31 1020.77 1021.39 1021.87 1022.25 1022.62 1023.04 1023.48 1023.86
1023.41 1022.85 1022.12 1021.50 1020.90 1020.21 1019.45 1018.54 1017.68 1016.81 1015.66 1015.00 1014.42 1013.81 1013.23 1013.05 1013.00 1012.67 1012.94 1013.09 1013.24 1013.39 1013.54 1013.82 1014.23 1014.83 1015.22 1015.82 1016.04 1016.35 1017.01 1017.64 1018.33 1018.86 1019.53 1019.84 1020.59 1021.19 1021.62 1021.95 1022.25 1022.68 1023.23
1024.49 1023.92 1023.28 1022.68 1022.07 1021.32 1020.46 1019.63 1018.81 1017.98 1016.97 1016.20 1015.68 1014.91 1013.96 1013.85 1013.52 1012.90 1012.95 1013.10 1013.30 1013.42 1013.63 1013.86 1014.23 1014.72 1015.19 1015.59 1015.99 1016.41 1016.80 1017.16 1017.81 1018.40 1018.78 1019.29 1019.84 1020.20 1020.79 1021.26 1021.57 1022.06 1022.72
1025.45 1025.01 1024.46 1023.83 1023.17 1022.39 1021.62 1020.90 1020.19 1019.14 1018.36 1017.40 1016.65 1015.86 1015.05 1014.67 1014.19 1014.03 1013.39 1013.26 1013.24 1013.51 1013.73 1013.95 1014.22 1014.52 1014.92 1015.36 1015.87 1016.25 1016.60 1016.87 1017.40 1018.00 1018.37 1018.78 1019.04 1019.46 1019.84 1020.38 1020.94 1021.38 1022.10
1026.71 1026.23 1025.65 1024.96 1024.28 1023.60 1022.77 1021.90 1021.02 1020.31 1019.48 1018.64 1017.67 1017.28 1015.73 1015.19 1015.13 1014.84 1013.91 1013.52 1013.43 1013.53 1013.74 1013.88 1014.05 1014.32 1014.60 1014.92 1015.46 1015.95 1016.39 1016.72 1017.11 1017.71 1018.10 1018.34 1018.55 1018.98 1019.34 1019.63 1020.01 1020.27 1020.96
1027.91 1027.43 1026.79 1026.17 1025.51 1024.73 1023.87 1022.91 1021.96 1021.09 1020.32 1019.50 1019.06 1018.06 1016.54 1016.28 1015.63 1015.25 1014.87 1014.31 1013.99 1013.91 1013.64 1013.74 1013.88 1014.17 1014.47 1014.78 1015.18 1015.68 1016.06 1016.50 1016.94 1017.41 1017.84 1018.13 1018.26 1018.56 1019.11 1019.39 1019.67 1019.71 1019.92
1029.02 1028.42 1027.71 1027.09 1026.42 1025.74 1024.76 1023.92 1022.92 1022.08 1021.42 1020.65 1019.60 1018.52 1017.55 1017.04 1016.55 1015.99 1015.74 1015.16 1014.75 1014.61 1014.32 1014.17 1013.96 1014.20 1014.41 1014.72 1015.06 1015.42 1015.89 1016.36 1016.83 1016.79 1017.13 1017.71 1017.98 1018.24 1018.73 1019.17 1019.53 1019.70 1019.80
1029.86 1029.16 1028.52 1027.91 1027.16 1026.72 1025.84 1024.75 1023.71 1023.26 1022.46 1021.60 1020.53 1019.60 1018.93 1018.11 1017.77 1017.48 1016.94 1016.21 1015.48 1015.35 1015.17 1015.06 1014.74 1014.89 1015.07 1015.06 1015.14 1015.41 1015.69 1015.97 1016.30 1016.48 1016.80 1017.36 1017.62 1017.78 1018.27 1018.73 1018.96 1019.39 1019.42
1030.28 1029.69 1029.08 1028.43 1027.79 1027.33 1026.31 1025.58 1024.96 1024.18 1023.30 1022.65 1021.78 1020.72 1020.12 1019.44 1018.90 1018.56 1017.52 1016.95 1016.53 1016.53 1015.99 1015.94 1015.77 1015.74 1015.71 1015.71 1015.73 1015.80 1015.97 1016.31 1016.80 1016.80 1017.00 1017.19 1017.59 1017.74 1017.95 1018.30 1018.60 1019.18 1019.41
1030.84 1030.19 1029.60 1028.99 1028.32 1027.91 1026.87 1026.06 1025.68 1025.11 1024.65 1023.67 1022.57 1021.80 1020.96 1020.05 1019.44 1019.19 1018.75 1018.12 1017.54 1017.27 1016.89 1016.73 1016.87 1016.75 1016.62 1016.37 1016.08 1016.07 1016.18 1016.40 1016.65 1017.01 1017.31 1017.43 1017.65 1017.90 1018.07 1018.33 1018.68 1018.99 1019.41
1031.34 1030.81 1030.22 1029.58 1028.82 1028.41 1027.54 1026.69 1026.53 1026.06 1025.19 1024.28 1023.43 1022.59 1021.84 1021.21 1020.57 1020.02 1019.57 1018.97 1018.47 1017.96 1017.98 1017.99 1017.69 1017.73 1017.52 1017.19 1016.90 1016.41 1016.33 1016.67 1017.01 1017.29 1017.25 1017.63 1017.83 1018.08 1018.17 1018.41 1018.78 1019.13 1019.46
1031.77 1031.32 1030.84 1030.28 1029.67 1029.00 1028.24 1027.53 1027.52 1026.69 1025.87 1024.97 1024.17 1023.51 1022.98 1022.29 1021.60 1020.99 1020.43 1019.76 1019.42 1019.20 1018.81 1018.56 1018.33 1018.35 1018.30 1017.93 1017.71 1017.38 1017.31 1017.36 1017.50 1017.60 1017.52 1017.64 1017.98 1018.23 1018.29 1018.47 1019.13 1019.41 1019.82
1032.25 1031.96 1031.38 1030.79 1030.34 1029.77 1029.11 1028.41 1028.09 1027.29 1026.75 1025.91 1024.92 1024.24 1023.71 1022.98 1022.29 1021.75 1021.28 1020.96 1020.42 1020.01 1019.61 1019.47 1019.67 1019.28 1018.88 1018.82 1018.49 1018.12 1017.90 1017.84 1017.73 1017.76 1017.83 1017.78 1017.99 1018.18 1018.42 1018.94 1019.40 1019.95 1020.18
1033.08 1032.51 1032.02 1031.53 1031.12 1030.46 1029.83 1028.99 1028.74 1027.88 1027.51 1026.47 1025.71 1024.84 1024.33 1023.80 1023.05 1022.52 1022.07 1021.58 1021.27 1020.88 1020.59 1020.47 1020.25 1019.76 1019.20 1019.31 1018.85 1018.32 1017.96 1017.78 1017.75 1017.84 1017.95 1018.10 1018.37 1018.77 1019.13 1019.53 1019.97 1020.30 1020.67
1033.70 1033.34 1032.89 1032.43 1031.77 1030.89 1030.29 1029.78 1029.30 1028.32 1027.82 1027.01 1026.01 1025.37 1025.03 1024.38 1023.67 1023.23 1022.71 1022.32 1022.00 1021.64 1021.35 1020.84 1020.23 1019.90 1019.72 1019.29 1018.75 1018.24 1018.05 1017.98 1017.77 1018.09 1018.48 1018.61 1018.77 1019.02 1019.35 1019.86 1020.34 1020.65 1020.97
Wind_Speed
9 2 6 9 8 7 9 15 15 14 11 9 9 7 8 5 4 6 9 11 9 10 8 6 6 5 5 6 6 4 7 3 3 5 4 3 3 2 2 1 2 3 2
6 7 8 2 8 11 12 12 15 16 13 10 9 4 7 7 8 6 8 9 10 11 10 9 8 8 6 7 8 7 4 2 3 4 3 2 2 2 2 0 2 4 3
8 9 9 8 7 2 8 13 13 16 14 12 7 4 5 4 4 5 5 7 11 12 12 10 10 10 8 9 10 9 7 5 3 3 5 3 4 1 1 2 2 3 3
10 9 10 11 9 8 6 6 8 12 12 12 11 13 10 8 4 8 8 8 11 11 11 12 11 12 8 10 9 8 6 8 6 1 2 3 5 4 2 1 2 1 3
11 13 13 12 11 10 10 6 7 9 10 12 12 10 9 8 5 7 9 8 8 10 12 12 11 11 8 9 11 10 7 9 7 5 3 2 2 2 3 3 2 0 2
13 13 13 13 13 12 12 11 3 10 10 12 12 13 11 8 7 8 8 8 7 8 10 11 11 11 10 10 10 10 10 10 8 4 4 5 5 4 3 2 1 3 3
13 14 15 14 14 15 14 11 10 5 8 12 12 13 11 11 11 10 9 9 7 7 10 12 11 10 12 11 11 11 12 10 9 10 7 4 4 4 3 3 2 3 2
13 14 15 14 14 15 14 13 12 11 3 8 10 9 10 8 7 9 7 8 8 9 11 12 12 13 13 12 12 10 10 10 9 10 8 4 4 4 4 5 5 1 2
15 16 15 15 15 15 15 14 13 10 10 3 6 6 5 6 8 8 7 8 9 9 11 13 13 13 14 13 13 10 12 11 10 9 8 7 4 4 4 4 4 6 5
15 15 15 15 14 14 14 14 13 12 11 9 2 5 7 8 7 6 9 8 7 7 10 12 14 14 15 15 14 12 10 12 9 8 9 8 4 6 4 4 4 3 5
14 14 14 14 13 14 14 14 14 13 13 10 7 3 4 4 4 3 5 8 10 10 11 13 14 15 14 15 15 14 12 13 12 10 10 11 8 7 7 4 3 4 4
13 14 14 14 15 16 15 14 13 12 12 13 11 5 4 4 3 4 4 5 6 9 11 11 12 12 12 13 14 15 13 15 14 13 11 12 7 9 8 7 7 6 5
16 14 15 15 15 15 15 15 15 15 15 13 11 9 8 6 4 3 3 4 4 5 4 7 9 9 8 10 12 13 11 11 11 12 13 12 10 10 6 8 8 6 4
16 16 15 15 15 15 15 15 15 15 14 13 11 10 9 8 7 3 3 3 3 4 6 7 8 9 9 9 8 9 9 10 11 10 11 11 11 12 10 9 9 6 7
18 17 16 15 16 16 15 14 14 14 14 13 12 12 10 9 9 7 5 5 5 4 4 4 6 7 8 8 9 9 8 9 8 6 8 8 10 12 11 8 8 8 7
17 17 17 17 17 17 15 14 14 14 13 12 13 11 11 10 10 8 8 7 4 3 5 6 6 7 6 11 12 10 8 6 7 8 6 6 9 11 13 15 12 14 11
14 16 15 14 14 15 15 15 14 13 13 13 11 11 13 11 12 10 8 9 8 5 1 4 6 7 6 12 13 13 7 8 7 7 5 5 4 6 5 10 11 14 17
13 13 12 12 13 14 15 13 14 14 12 12 13 14 13 13 13 12 11 9 8 7 5 5 4 3 2 8 9 11 6 6 7 7 6 5 6 6 6 5 5 6 7
11 10 10 11 12 13 13 12 14 13 14 14 13 13 12 12 12 12 10 8 8 8 8 6 9 8 8 8 4 6 4 5 5 4 4 6 6 7 12 8 8 6 5
11 11 12 10 12 14 13 12 12 14 15 15 13 12 11 9 10 9 11 9 9 7 6 8 10 13 7 14 11 6 2 3 2 2 2 6 5 6 10 7 6 7 5
12 12 11 10 11 12 13 13 13 14 13 13 13 12 11 11 11 8 7 8 8 7 9 8 9 9 11 10 14 9 2 2 2 2 1 0 3 5 7 8 5 5 7
13 14 11 11 12 13 12 13 14 14 13 12 12 13 12 10 9 10 9 10 8 8 8 7 7 6 7 15 16 8 5 4 2 2 2 2 5 5 4 7 7 11 10
11 11 10 11 11 12 11 12 13 14 13 12 12 11 11 10 10 9 10 8 9 7 7 6 6 6 6 6 16 18 10 8 2 1 2 3 4 5 8 9 7 12 4
12 11 11 11 12 13 13 10 11 12 12 11 11 10 10 11 10 7 6 6 6 7 6 7 5 5 5 6 6 5 5 5 4 3 2 2 3 4 7 5 7 3 3
11 11 11 10 11 12 12 11 12 11 11 10 9 8 8 9 8 8 7 6 6 7 5 5 5 6 6 6 11 9 5 4 3 3 2 2 3 3 3 3 4 3 3
10 10 11 10 11 11 11 11 11 10 9 9 8 8 7 7 7 6 7 12 15 15 14 13 8 3 8 12 14 14 12 12 2 2 1 0 2 3 3 4 3 2 5
Wind_Direction
251 224 224 211 196 170 167 176 182 185 166 162 158 165 169 164 165 177 170 174 166 167 161 169 157 155 153 153 148 108 128 69 131 101 53 36 18 51 93 138 136 156 178
42 20 15 291 187 188 181 180 182 181 179 172 175 164 169 184 180 174 179 167 159 172 172 172 168 170 151 151 160 155 123 110 190 128 100 102 9 10 359 306 194 178 182
20 8 13 12 9 216 202 187 180 178 176 172 159 107 110 87 135 167 170 179 176 176 180 178 171 173 173 176 172 167 153 143 227 242 137 120 217 132 359 274 276 203 205
28 24 20 21 15 356 321 235 187 176 173 163 167 169 178 175 182 179 186 187 184 178 179 182 179 180 176 176 173 177 174 148 175 109 69 79 138 163 199 256 250 258 240
26 20 14 12 10 4 354 304 182 173 164 167 173 173 184 186 164 167 175 179 181 185 182 181 175 179 179 177 175 172 174 178 169 171 155 114 72 88 127 180 211 312 230
28 23 17 13 7 5 2 348 200 184 170 173 169 178 177 160 161 168 174 179 179 182 184 183 186 185 181 176 177 179 181 190 187 178 168 157 166 179 150 126 197 197 217
28 22 15 10 5 6 3 356 353 219 185 189 179 180 178 173 175 173 176 169 179 189 191 185 185 186 192 188 183 181 184 189 190 182 194 177 167 142 135 124 154 165 190
24 22 15 6 3 3 1 357 358 352 256 198 206 192 178 181 180 179 178 184 188 196 188 193 191 190 191 193 188 189 192 193 196 194 196 174 186 166 161 160 142 104 206
22 17 10 8 0 1 357 353 351 351 347 252 198 176 166 180 187 180 186 191 196 195 189 191 196 199 193 193 192 194 196 190 193 196 190 192 186 190 182 174 160 151 181
16 13 8 4 1 357 355 358 360 3 351 335 187 176 180 188 196 185 188 189 195 191 192 198 200 199 200 195 194 199 198 193 195 191 190 194 178 192 189 185 189 177 159
11 10 4 1 2 0 1 2 1 3 357 351 339 162 159 154 161 194 212 220 215 199 197 200 201 204 201 198 196 196 188 194 195 194 191 204 194 198 195 177 181 184 167
14 11 7 4 5 3 0 1 5 3 351 4 0 22 119 151 158 212 229 218 232 213 203 200 203 204 198 201 199 197 190 194 195 197 190 203 193 201 198 195 197 196 184
16 12 10 9 6 2 359 1 0 359 360 5 3 15 33 37 333 180 197 180 181 176 165 168 173 174 180 198 204 197 181 190 201 196 199 203 189 204 195 201 201 195 176
18 14 11 10 5 2 0 0 358 359 358 8 3 9 28 17 3 324 165 154 157 157 174 184 191 187 189 188 188 187 191 186 201 197 199 202 193 205 199 200 202 180 182
19 15 10 8 4 1 1 359 359 359 357 2 1 9 13 17 19 7 19 176 155 174 173 164 179 185 187 190 192 192 193 187 188 193 196 195 198 205 197 190 197 175 184
13 9 8 9 4 359 356 356 359 355 357 360 5 358 18 25 24 9 19 44 47 180 181 188 180 176 181 180 188 190 198 195 200 205 203 199 195 210 205 205 194 192 184
5 5 1 6 1 356 352 356 356 354 0 4 358 356 18 17 18 14 17 30 35 15 123 188 174 180 175 175 180 180 178 178 187 187 194 195 194 192 205 217 213 204 203
359 2 359 0 1 355 354 355 359 1 0 1 359 3 13 15 8 16 11 20 29 22 42 42 63 112 143 174 179 177 173 174 194 182 175 193 194 193 184 185 206 215 209
351 358 356 356 0 358 353 358 5 4 2 359 358 1 3 17 9 5 2 21 32 20 40 28 58 61 45 55 137 153 158 171 189 179 168 203 214 206 197 196 201 207 212
354 357 352 359 7 355 356 7 8 6 2 353 347 359 360 9 14 355 1 11 29 21 36 39 39 47 44 38 52 80 112 132 146 95 175 186 201 194 202 204 195 204 192
354 359 355 359 4 353 357 9 4 6 348 347 352 356 0 13 13 358 3 9 33 28 32 42 37 34 28 25 26 33 76 93 108 147 144 195 218 213 208 206 178 203 147
359 2 357 354 356 355 0 10 2 347 346 352 358 360 2 8 6 10 10 15 24 35 33 28 38 24 17 32 17 11 71 66 112 189 161 210 223 225 211 144 164 158 131
0 356 355 351 353 354 2 9 351 346 343 353 359 359 357 7 5 10 8 20 16 23 29 29 25 17 7 19 25 30 52 59 72 43 173 176 198 191 145 135 161 137 126
1 354 355 359 353 350 351 0 350 348 342 345 355 354 1 8 6 5 8 11 14 15 20 21 11 8 18 8 8 14 13 15 36 44 54 117 140 140 130 130 129 108 113
356 354 355 353 346 345 343 351 346 354 342 343 344 351 0 357 2 7 6 5 359 20 12 2 352 353 7 348 350 355 356 349 2 34 44 57 75 102 109 80 110 117 118
354 351 351 347 339 340 340 342 342 348 341 344 345 353 353 350 357 356 354 11 14 15 13 10 9 353 337 343 351 349 349 350 352 40 2 87 142 155 141 140 136 131 151